[[{"header":{"parameterUnit":"m.s-1","parameterCategory":1,"la1":30.2991,"la2":30.254,"lo1":-89.0895,"lo2":-89.0444,"dy":0.0017,"dx":0.0017,"nx":28,"ny":28,"refTime":"2024-10-03T21:00:00:Z","depth":0,"parameterNumber":2,"parameterNumberName":"U-component_of_WINDS"},"data":[0,0,0,0,0,0,0,0,0,0,0,0,0,0,0,0,0,0,0,0,0,0,0,0,0,0,0,0,0,0,0,0,0,0,0,0,0,0,0,0,0,0,0,0,0,0,0,0,0,0,0,0,0,0,0,0,0,0,-4.5625,-4.5626,0,-4.5681,-4.5682,-4.5683,-4.5586,-4.5583,-4.5579,-4.5576,-4.5632,-4.5636,-4.5641,0,0,0,0,0,0,0,0,0,0,0,0,0,-4.5431,-4.5435,-4.5625,-4.5626,-4.5626,-4.5681,-4.5682,-4.5683,-4.5586,-4.5582,-4.5578,-4.5575,-4.563,-4.5636,-4.5641,0,0,0,0,0,0,0,0,0,0,0,0,0,-4.5504,-4.5437,-4.5625,-4.5585,-4.5582,-4.5681,-4.5682,-4.5683,-4.5587,-4.5582,-4.5577,-4.5573,-4.5629,-4.5635,-4.5642,-4.5782,0,0,-4.5663,-4.5666,0,0,0,0,0,0,0,0,-4.55,-4.5511,-4.559,-4.5588,-4.5585,-4.5622,-4.5634,-4.5716,-4.5588,-4.5585,-4.5576,-4.557,-4.5632,-4.5638,-4.566,-4.5785,-4.5787,-4.5663,-4.5667,-4.567,-4.5672,0,0,0,0,0,0,0,-4.5495,-4.5508,-4.5647,-4.5591,-4.5588,-4.5563,-4.5568,-4.5649,-4.5635,-4.5585,-4.5578,-4.5586,-4.563,-4.5653,-4.566,-4.5788,-4.5663,-4.5669,-4.5673,-4.5676,-4.603,-4.6035,0,0,0,0,0,0,-4.5495,-4.5505,-4.5645,-4.5649,-4.553,-4.5571,-4.5576,-4.5615,-4.5634,-4.5633,-4.559,-4.5582,-4.5644,-4.5653,-4.5662,-4.5827,-4.567,-4.5677,-4.5681,-4.6025,-4.6032,-4.6037,0,0,0,0,0,0,-4.5492,-4.5509,-4.5643,-4.5575,-4.559,-4.5579,-4.5623,-4.5618,-4.5642,-4.5638,-4.5635,-4.5617,-4.5641,-4.5652,-4.5753,-4.5828,-4.568,-4.5686,-4.6019,-4.6027,-4.6034,-4.6159,0,0,0,0,0,0,-4.5487,-4.5508,-4.5562,-4.5577,-4.5594,-4.5734,-4.5628,-4.5623,-4.5654,-4.5643,-4.5663,-4.5661,-4.5638,-4.5743,-4.576,-4.5835,-4.5691,-4.6012,-4.6022,-4.6032,-4.6149,-4.6171,-4.619,0,0,0,0,0,-4.548,-4.5594,-4.5565,-4.5583,-4.5661,-4.5739,-4.5749,-4.572,-4.5661,-4.5714,-4.5712,-4.5661,-4.5817,-4.5755,-4.5772,-4.585,-4.6007,-4.6019,-4.6031,-4.6139,-4.6166,-4.6189,0,0,0,0,0,0,-4.5587,-4.5596,-4.5563,-4.5686,-4.5713,-4.5722,-4.5789,-4.5749,-4.5793,-4.578,-4.5742,-4.5747,-4.5856,-4.5863,-4.5793,-4.5987,-4.5902,-4.5918,-4.5978,-4.6004,-4.6024,-4.602,-4.5697,0,0,0,0,0,-4.5626,-4.5689,-4.5692,-4.58,-4.5815,-4.58,-4.5833,-4.5808,-4.5834,-4.5844,-4.5849,-4.5876,-4.593,-4.5967,-4.6018,-4.6149,-4.6152,-4.6211,-4.6232,-4.6249,-4.6263,-4.6333,-4.6359,-4.6077,-4.6077,-4.6076,0,0,-4.5705,-4.5717,-4.5759,-4.5822,-4.584,-4.5905,-4.581,-4.5883,-4.5931,-4.5855,-4.5951,-4.5956,-4.5982,-4.6099,-4.6151,-4.6108,-4.6342,-4.6264,-4.6278,-4.6283,-4.6348,-4.6375,-4.6399,-4.6085,-4.6083,-4.6082,0,0,-4.5882,-4.5898,-4.599,-4.601,-4.6038,-4.6028,-4.605,-4.6066,-4.6066,-4.6162,-4.6106,-4.6162,-4.6258,-4.6279,-4.6302,-4.6489,-4.6443,-4.6506,-4.6614,-4.6682,-4.6704,-4.6724,-4.679,-4.6815,-4.652,-4.6521,-4.6521,0,-4.5977,-4.6074,-4.6042,-4.612,-4.6149,-4.6084,-4.6176,-4.6197,-4.624,-4.6261,-4.6213,-4.6332,-4.6345,-4.6466,-4.6511,-4.6532,-4.6556,-4.6504,-4.6704,-4.6723,-4.6741,-4.6804,-4.6829,-4.6528,-4.6527,-4.6527,-4.6526,0,-4.6189,-4.6258,-4.6328,-4.6373,-4.641,-4.6494,-4.6474,-4.6515,-4.6488,-4.6482,-4.658,-4.6594,-4.6646,-4.6673,-4.6646,-4.679,-4.6763,-4.671,-4.6624,-4.6776,-4.6834,-4.6858,-4.6539,-4.6536,-4.6534,-4.6532,0,0,-4.6436,-4.6462,-4.6489,-4.6508,-4.6535,-4.6586,-4.6668,-4.6719,-4.6755,-4.6787,-4.6854,-4.6937,-4.6888,-4.6915,-4.689,-4.695,-4.7097,-4.689,-4.689,-4.6928,-4.7256,-4.7296,-4.7325,-4.7067,-4.7072,-4.7075,-4.7254,0,-4.6613,-4.6755,-4.6728,-4.6866,-4.6928,-4.6867,-4.6938,-4.6962,-4.6959,-4.701,-4.7006,-4.7065,-4.6997,-4.7013,-4.707,-4.7068,-4.7163,-4.7054,-4.7129,-4.7132,-4.7124,-4.7355,-4.7397,-4.7565,-4.7277,-4.7281,-4.7283,0,-4.6838,-4.688,-4.7024,-4.7041,-4.7066,-4.713,-4.7176,-4.7226,-4.7252,-4.7245,-4.7275,-4.7239,-4.7319,-4.7233,-4.7342,-4.7269,-4.7298,-4.7302,-4.7308,-4.7313,-4.7217,-4.7367,-4.7618,-4.7644,-4.7319,-4.7316,-4.7314,0,-4.7004,-4.7096,-4.7194,-4.7212,-4.7234,-4.7281,-4.7292,-4.7313,-4.7346,-4.7385,-4.7406,-4.7454,-4.748,-4.7518,-4.7495,-4.7434,-4.7609,-4.752,-4.7605,-4.7606,-4.7645,-4.7643,-4.7905,-4.7664,-4.7664,-4.7663,-4.7663,0,-4.7205,-4.7295,-4.7269,-4.7329,-4.7429,-4.7397,-4.7496,-4.75,-4.7519,-4.7578,-4.7528,-4.7585,-4.7552,-4.7606,-4.7589,-4.7682,-4.7695,-4.7691,-4.7685,-4.7696,-4.7696,-4.7714,-4.7702,-4.767,-4.7668,-4.7667,-4.7666,0,-4.7407,-4.7393,-4.7496,-4.7509,-4.7514,-4.7587,-4.7597,-4.7653,-4.7646,-4.7722,-4.7738,-4.7727,-4.7788,-4.777,-4.7835,-4.7824,-4.7942,-4.7922,-4.7934,-4.7929,-4.8015,-4.8007,-4.8297,-4.8334,-4.807,-4.8073,-4.8075,0,-4.7536,-4.7604,-4.7624,-4.7661,-4.7676,-4.7736,-4.777,-4.7741,-4.7777,-4.7812,-4.7864,-4.792,-4.7964,-4.8065,-4.8062,-4.8112,-4.8092,-4.819,-4.8099,-4.8107,-4.8093,-4.809,-4.8096,-4.8208,-4.8211,-4.8214,-4.8216,0,-4.7766,-4.7756,-4.7806,-4.7855,-4.7897,-4.7934,-4.7965,-4.7998,-4.7971,-4.8015,-4.8077,-4.8112,-4.8179,-4.8236,-4.8281,-4.8292,-4.825,-4.8245,-4.8267,-4.8278,-4.8283,-4.8281,-4.7984,-4.8238,-4.8236,-4.8234,-4.8233,-4.8232,-4.7935,-4.7993,-4.8017,-4.8075,-4.8096,-4.8127,-4.8181,-4.8181,-4.8233,-4.8286,-4.8265,-4.8337,-4.836,-4.8417,-4.8433,-4.8488,-4.8451,-4.8483,-4.8491,-4.85,-4.8511,-4.8274,-4.8497,-4.8496,-4.8495,-4.8495,-4.8494,0,-4.8163,-4.8175,-4.8229,-4.8276,-4.8321,-4.8279,-4.8312,-4.8353,-4.8417,-4.8442,-4.8487,-4.8558,-4.8613,-4.8615,-4.8667,-4.871,-4.8692,-4.8725,-4.8721,-4.8724,-4.8541,-4.8517,-4.8738,-4.8738,-4.8738,-4.8738,-4.8738,-4.8738,-4.8286,-4.8382,-4.8375,-4.8481,-4.8492,-4.8562,-4.8585,-4.8613,-4.8634,-4.8716,-4.8762,-4.8763,-4.8779,-4.8831,-4.888,-4.8879,-4.89,-4.894,-4.8932,-4.8761,-4.8737,-4.8714,-4.8691,-4.8945,-4.8945,-4.911,-4.9111,-4.9113]},{"header":{"parameterUnit":"m.s-1","parameterCategory":1,"la1":30.2991,"la2":30.254,"lo1":-89.0895,"lo2":-89.0444,"dy":0.0017,"dx":0.0017,"nx":28,"ny":28,"refTime":"2024-10-03T21:00:00:Z","depth":0,"parameterNumber":3,"parameterNumberName":"V-component_of_WINDS"},"data":[0,0,0,0,0,0,0,0,0,0,0,0,0,0,0,0,0,0,0,0,0,0,0,0,0,0,0,0,0,0,0,0,0,0,0,0,0,0,0,0,0,0,0,0,0,0,0,0,0,0,0,0,0,0,0,0,0,0,-3.2742,-3.2742,0,-3.2782,-3.2782,-3.2783,-3.275,-3.2749,-3.2747,-3.2746,-3.2786,-3.2788,-3.279,0,0,0,0,0,0,0,0,0,0,0,0,0,-3.2634,-3.2636,-3.2742,-3.2742,-3.2743,-3.2782,-3.2782,-3.2783,-3.275,-3.2749,-3.2747,-3.2745,-3.2785,-3.2787,-3.279,0,0,0,0,0,0,0,0,0,0,0,0,0,-3.2678,-3.2636,-3.2741,-3.2731,-3.2731,-3.2782,-3.2782,-3.2783,-3.2751,-3.2748,-3.2746,-3.2744,-3.2784,-3.2787,-3.2791,-3.2854,0,0,-3.2801,-3.2803,0,0,0,0,0,0,0,0,-3.2675,-3.2682,-3.2732,-3.2732,-3.2731,-3.2759,-3.2759,-3.2807,-3.2751,-3.2743,-3.2746,-3.2743,-3.2778,-3.2782,-3.2794,-3.2856,-3.2857,-3.2802,-3.2804,-3.2805,-3.2806,0,0,0,0,0,0,0,-3.2672,-3.268,-3.2757,-3.2733,-3.2732,-3.2723,-3.2727,-3.2768,-3.2772,-3.2743,-3.2741,-3.2746,-3.2778,-3.2791,-3.2795,-3.2858,-3.2802,-3.2805,-3.2807,-3.2808,-3.2971,-3.2973,0,0,0,0,0,0,-3.2671,-3.2678,-3.2756,-3.2759,-3.2698,-3.2727,-3.2731,-3.2752,-3.2771,-3.2772,-3.2748,-3.2745,-3.2786,-3.2791,-3.2796,-3.287,-3.2805,-3.2809,-3.2811,-3.2969,-3.2971,-3.2974,0,0,0,0,0,0,-3.2668,-3.2678,-3.2755,-3.2717,-3.2727,-3.2731,-3.2754,-3.2754,-3.2767,-3.2775,-3.2775,-3.2761,-3.2784,-3.2791,-3.2839,-3.2871,-3.281,-3.2813,-3.2966,-3.297,-3.2973,-3.3019,0,0,0,0,0,0,-3.2665,-3.2677,-3.2702,-3.2718,-3.2729,-3.2798,-3.2756,-3.2756,-3.2773,-3.2769,-3.2787,-3.2788,-3.2783,-3.2834,-3.2843,-3.2875,-3.2816,-3.2963,-3.2968,-3.2972,-3.3015,-3.3024,-3.3031,0,0,0,0,0,-3.2662,-3.2714,-3.2704,-3.2713,-3.276,-3.28,-3.2806,-3.28,-3.2776,-3.2801,-3.2805,-3.2787,-3.2866,-3.2839,-3.2849,-3.2882,-3.2961,-3.2966,-3.2971,-3.3011,-3.3022,-3.3031,0,0,0,0,0,0,-3.2701,-3.2716,-3.2705,-3.2764,-3.2781,-3.2795,-3.2825,-3.2812,-3.2836,-3.2831,-3.2822,-3.2826,-3.2877,-3.2884,-3.2854,-3.2943,-3.291,-3.2917,-3.2937,-3.2947,-3.2955,-3.2953,-3.2819,0,0,0,0,0,-3.2717,-3.2749,-3.276,-3.2811,-3.282,-3.2821,-3.2838,-3.2832,-3.285,-3.2857,-3.2865,-3.2882,-3.291,-3.2929,-3.2955,-3.3016,-3.3018,-3.3043,-3.3051,-3.3058,-3.3064,-3.3095,-3.3106,-3.299,-3.299,-3.299,0,0,-3.275,-3.2761,-3.2782,-3.2819,-3.2832,-3.2864,-3.2828,-3.2864,-3.2888,-3.2862,-3.2908,-3.2914,-3.2932,-3.2986,-3.3011,-3.2994,-3.3097,-3.3064,-3.307,-3.3072,-3.3101,-3.3112,-3.3122,-3.2994,-3.2993,-3.2992,0,0,-3.2825,-3.2838,-3.2881,-3.2895,-3.2914,-3.2914,-3.2925,-3.294,-3.2943,-3.2989,-3.297,-3.2998,-3.3047,-3.306,-3.3074,-3.3152,-3.3137,-3.3161,-3.3204,-3.3235,-3.3244,-3.3252,-3.3279,-3.3289,-3.3167,-3.3167,-3.3168,0,-3.2864,-3.2913,-3.2905,-3.2943,-3.2959,-3.2937,-3.298,-3.2992,-3.302,-3.3031,-3.3012,-3.3072,-3.3083,-3.3139,-3.3158,-3.317,-3.318,-3.316,-3.3243,-3.3251,-3.3258,-3.3284,-3.3295,-3.317,-3.317,-3.317,-3.3169,0,-3.2958,-3.2992,-3.3024,-3.3051,-3.3071,-3.3111,-3.3108,-3.3129,-3.312,-3.3122,-3.3168,-3.318,-3.3208,-3.3221,-3.3213,-3.3275,-3.3264,-3.3245,-3.3211,-3.3272,-3.3297,-3.3307,-3.3174,-3.3173,-3.3173,-3.3172,0,0,-3.3061,-3.3082,-3.3094,-3.3105,-3.3124,-3.315,-3.3188,-3.3216,-3.3233,-3.3252,-3.3283,-3.3324,-3.3306,-3.3321,-3.3314,-3.334,-3.3401,-3.3317,-3.3317,-3.3332,-3.3469,-3.3484,-3.3496,-3.339,-3.3392,-3.3394,-3.3468,0,-3.3138,-3.3205,-3.3199,-3.3262,-3.3293,-3.3271,-3.3304,-3.3319,-3.3321,-3.3346,-3.3348,-3.3378,-3.3351,-3.336,-3.3385,-3.3388,-3.3428,-3.3383,-3.3418,-3.342,-3.3415,-3.3509,-3.3525,-3.3595,-3.3477,-3.3479,-3.348,0,-3.3237,-3.3259,-3.3326,-3.3338,-3.3351,-3.3381,-3.3405,-3.343,-3.3445,-3.3444,-3.346,-3.3449,-3.3485,-3.345,-3.3501,-3.347,-3.3484,-3.3487,-3.349,-3.3493,-3.3454,-3.3515,-3.3617,-3.3627,-3.3495,-3.3494,-3.3493,0,-3.3305,-3.3351,-3.3397,-3.3407,-3.3423,-3.3445,-3.3452,-3.3465,-3.3482,-3.3502,-3.3513,-3.3537,-3.355,-3.3569,-3.3563,-3.3539,-3.3615,-3.3579,-3.3615,-3.3615,-3.3632,-3.3631,-3.3738,-3.3641,-3.3641,-3.3641,-3.364,0,-3.3391,-3.3433,-3.3427,-3.3456,-3.3501,-3.3492,-3.3537,-3.3541,-3.3553,-3.3581,-3.3563,-3.3589,-3.358,-3.3606,-3.3601,-3.3643,-3.3649,-3.3649,-3.3648,-3.3651,-3.3651,-3.366,-3.3655,-3.3643,-3.3643,-3.3642,-3.3642,0,-3.3476,-3.3474,-3.3522,-3.3533,-3.3536,-3.3569,-3.3578,-3.3604,-3.3604,-3.3639,-3.3647,-3.3647,-3.3675,-3.3672,-3.3704,-3.3701,-3.3752,-3.3745,-3.3747,-3.3746,-3.3781,-3.3778,-3.3898,-3.3913,-3.3806,-3.3807,-3.3808,0,-3.3531,-3.3562,-3.3576,-3.3594,-3.3603,-3.3631,-3.3647,-3.3639,-3.3657,-3.3676,-3.3699,-3.3726,-3.3747,-3.3794,-3.3796,-3.382,-3.3813,-3.3853,-3.3817,-3.3818,-3.3813,-3.3811,-3.3814,-3.3861,-3.3862,-3.3863,-3.3864,0,-3.3629,-3.3626,-3.3651,-3.3675,-3.3695,-3.3714,-3.373,-3.3745,-3.3738,-3.3759,-3.3788,-3.3804,-3.3836,-3.3863,-3.3885,-3.3892,-3.3877,-3.3875,-3.3885,-3.3888,-3.3888,-3.3888,-3.3767,-3.3873,-3.3872,-3.3871,-3.3871,-3.387,-3.37,-3.3727,-3.374,-3.3768,-3.3779,-3.3795,-3.3819,-3.3822,-3.3846,-3.3872,-3.3865,-3.3898,-3.3911,-3.3939,-3.3948,-3.3972,-3.3958,-3.3971,-3.3975,-3.3978,-3.3982,-3.3884,-3.3976,-3.3976,-3.3976,-3.3976,-3.3976,0,-3.3797,-3.3805,-3.383,-3.3854,-3.3875,-3.3858,-3.3875,-3.3894,-3.3923,-3.3936,-3.3957,-3.399,-3.4015,-3.4019,-3.4043,-3.4062,-3.4056,-3.4069,-3.4067,-3.4069,-3.3995,-3.3984,-3.4073,-3.4073,-3.4073,-3.4073,-3.4073,-3.4073,-3.385,-3.3894,-3.3892,-3.394,-3.3947,-3.3979,-3.399,-3.4004,-3.4014,-3.4051,-3.4072,-3.4075,-3.4084,-3.4108,-3.413,-3.413,-3.414,-3.4156,-3.4153,-3.4084,-3.4074,-3.4065,-3.4055,-3.4158,-3.4158,-3.4225,-3.4226,-3.4226]}]]